Brookhaven, MS

11:21 PM CST on December 17, 2017 (GMT -0600)
Brookhaven

Weather History for K1R7 - October, 2012

Change the Weather History Date:

Saturday, October 27, 2012

  Actual Average (KMCB) Record (KMCB)
Temperature  
Mean Temperature 50 °F -  
Max Temperature 57 °F 75 °F 88 °F (2010)
Min Temperature 44 °F 49 °F 32 °F (1957)
Degree Days  
Heating Degree Days 14    
Moisture  
Dew Point 43 °F    
Average Humidity 81    
Maximum Humidity 93    
Minimum Humidity 58    
Precipitation  
Precipitation 0.00 in - - ()
Sea Level Pressure  
Sea Level Pressure 30.07 in    
Wind  
Wind Speed 9 mph (NNW)    
Max Wind Speed 14 mph    
Max Gust Speed 20 mph    
Visibility 10 miles    
Events      
Averages and records for this station are not official NWS values.
T = Trace of Precipitation, MM = Missing Value Source: NWS Daily Summary

Daily Weather History Graph

Daily Weather History Graph

Search for Another Location

Airport or City:

Trip Planner

Search our weather history database for the weather conditions in past years. The results will help you decide how hot, cold, wet, or windy it might be!

Date:

Astronomy

Oct. 27, 2012 Rise Set
Actual Time 7:14 AM CDT 6:16 PM CDT
Civil Twilight 6:49 AM CDT 6:41 PM CDT
Nautical Twilight 6:20 AM CDT 7:09 PM CDT
Astronomical Twilight 5:52 AM CDT 7:38 PM CDT
Moon 4:58 PM CDT (10/27) 5:14 AM CDT (10/27)
Length of Visible Light 11h 52m
Length of Day
11h 02m
Waxing Gibbous, 96% of the Moon is Illuminated
Oct 27
Waxing Gibbous
Oct 29
Full
Nov 6
Last Quarter
Nov 13
New
Nov 20
First Quarter

Hourly Weather History & Observations

Time (CDT) Temp. Windchill Dew Point Humidity Pressure Visibility Wind Dir Wind Speed Gust Speed Precip Events Conditions
12:15 AM 46.4 °F 41.9 °F 44.6 °F 93% 30.11 in 8.0 mi NNW 9.2 mph 16.1 mph N/A   Light Drizzle
12:35 AM 46.4 °F 42.4 °F 44.6 °F 93% 30.10 in 9.0 mi NNW 8.1 mph - N/A   Overcast
12:55 AM 46.4 °F 41.5 °F 44.6 °F 93% 30.10 in 10.0 mi NW 10.4 mph - N/A   Overcast
1:15 AM 46.4 °F 41.9 °F 44.6 °F 93% 30.09 in 10.0 mi NNW 9.2 mph - N/A   Overcast
1:35 AM 46.4 °F 43.5 °F 44.6 °F 93% 30.09 in 10.0 mi NNW 5.8 mph 16.1 mph N/A   Overcast
1:55 AM 46.4 °F 41.1 °F 44.6 °F 93% 30.08 in 9.0 mi NNW 11.5 mph - N/A   Overcast
2:15 AM 46.4 °F 41.5 °F 44.6 °F 93% 30.09 in 10.0 mi North 10.4 mph - N/A   Overcast
2:35 AM 46.4 °F 41.5 °F 44.6 °F 93% 30.08 in 10.0 mi NNW 10.4 mph - N/A   Overcast
2:55 AM 46.4 °F 41.9 °F 44.6 °F 93% 30.08 in 10.0 mi NNW 9.2 mph - N/A   Overcast
3:35 AM 46.4 °F 41.9 °F 44.6 °F 93% 30.07 in 10.0 mi North 9.2 mph - N/A   Overcast
3:55 AM 46.4 °F 41.9 °F 44.6 °F 93% 30.07 in 10.0 mi NNW 9.2 mph 16.1 mph N/A   Overcast
4:15 AM 46.4 °F 41.5 °F 44.6 °F 93% 30.07 in 10.0 mi North 10.4 mph - N/A   Overcast
4:35 AM 46.4 °F 41.9 °F 44.6 °F 93% 30.07 in 10.0 mi North 9.2 mph - N/A   Overcast
4:55 AM 46.4 °F 41.1 °F 44.6 °F 93% 30.07 in 10.0 mi NNW 11.5 mph 16.1 mph N/A   Overcast
5:15 AM 46.4 °F 41.5 °F 44.6 °F 93% 30.07 in 10.0 mi NNW 10.4 mph 17.3 mph N/A   Overcast
5:35 AM 46.4 °F 41.5 °F 44.6 °F 93% 30.07 in 10.0 mi North 10.4 mph - N/A   Overcast
5:55 AM 46.4 °F 41.1 °F 44.6 °F 93% 30.07 in 10.0 mi North 11.5 mph - N/A   Overcast
6:15 AM 46.4 °F 41.5 °F 44.6 °F 93% 30.07 in 10.0 mi North 10.4 mph - N/A   Overcast
6:55 AM 46.4 °F 41.5 °F 42.8 °F 87% 30.08 in 10.0 mi North 10.4 mph - N/A   Overcast
7:15 AM 46.4 °F 43.5 °F 42.8 °F 87% 30.08 in 10.0 mi North 5.8 mph - N/A   Overcast
7:35 AM 46.4 °F 41.5 °F 42.8 °F 87% 30.09 in 10.0 mi North 10.4 mph - N/A   Overcast
7:55 AM 46.4 °F 42.4 °F 42.8 °F 87% 30.09 in 10.0 mi North 8.1 mph - N/A   Overcast
8:15 AM 46.4 °F 41.9 °F 42.8 °F 87% 30.10 in 10.0 mi NNW 9.2 mph - N/A   Overcast
8:35 AM 46.4 °F 42.9 °F 42.8 °F 87% 30.10 in 10.0 mi NNW 6.9 mph - N/A   Overcast
9:15 AM 46.4 °F 41.5 °F 42.8 °F 87% 30.11 in 10.0 mi NNW 10.4 mph - N/A   Overcast
9:35 AM 46.4 °F 41.5 °F 42.8 °F 87% 30.11 in 10.0 mi NNW 10.4 mph - N/A   Overcast
9:55 AM 46.4 °F 42.4 °F 42.8 °F 87% 30.11 in 10.0 mi NNW 8.1 mph - N/A   Overcast
10:35 AM 46.4 °F 41.1 °F 42.8 °F 87% 30.11 in 10.0 mi NNW 11.5 mph - N/A   Overcast
10:55 AM 46.4 °F 41.5 °F 42.8 °F 87% 30.12 in 10.0 mi NNW 10.4 mph - N/A   Overcast
11:15 AM 48.2 °F - 42.8 °F 82% 30.11 in 10.0 mi NNW 12.7 mph - N/A   Overcast
11:35 AM 48.2 °F - 42.8 °F 82% 30.11 in 10.0 mi NNW 11.5 mph 17.3 mph N/A   Overcast
11:55 AM 48.2 °F - 42.8 °F 82% 30.11 in 9.0 mi NW 10.4 mph 16.1 mph N/A   Overcast
12:15 PM 48.2 °F - 42.8 °F 82% 30.10 in 10.0 mi NNW 10.4 mph - N/A   Overcast
12:35 PM 48.2 °F - 42.8 °F 82% 30.09 in 10.0 mi NNW 12.7 mph 17.3 mph N/A   Overcast
12:55 PM 48.2 °F - 42.8 °F 82% 30.08 in 10.0 mi NNW 11.5 mph - N/A   Overcast
1:15 PM 50.0 °F - 42.8 °F 76% 30.07 in 10.0 mi NW 10.4 mph - N/A   Overcast
1:35 PM 51.8 °F - 42.8 °F 71% 30.07 in 10.0 mi NW 12.7 mph 17.3 mph N/A   Overcast
1:55 PM 51.8 °F - 42.8 °F 71% 30.06 in 10.0 mi NNW 10.4 mph - N/A   Overcast
2:15 PM 51.8 °F - 42.8 °F 71% 30.05 in 10.0 mi NNW 10.4 mph 17.3 mph N/A   Overcast
2:35 PM 51.8 °F - 42.8 °F 71% 30.05 in 10.0 mi NNW 9.2 mph 18.4 mph N/A   Overcast
2:55 PM 53.6 °F - 44.6 °F 72% 30.04 in 10.0 mi North 13.8 mph 19.6 mph N/A   Mostly Cloudy
3:15 PM 53.6 °F - 44.6 °F 72% 30.03 in 10.0 mi NNW 6.9 mph - N/A   Scattered Clouds
3:35 PM 55.4 °F - 44.6 °F 67% 30.02 in 10.0 mi NW 12.7 mph - N/A   Mostly Cloudy
3:55 PM 55.4 °F - 42.8 °F 63% 30.02 in 10.0 mi NNW 10.4 mph 19.6 mph N/A   Scattered Clouds
4:15 PM 57.2 °F - 42.8 °F 59% 30.02 in 10.0 mi North 11.5 mph 18.4 mph N/A   Partly Cloudy
4:35 PM 57.2 °F - 42.8 °F 59% 30.01 in 10.0 mi NNW 10.4 mph 18.4 mph N/A   Clear
4:55 PM 57.2 °F - 42.8 °F 59% 30.01 in 10.0 mi NNW 8.1 mph - N/A   Clear
5:15 PM 57.2 °F - 42.8 °F 59% 30.02 in 10.0 mi NNW 8.1 mph - N/A   Clear
5:35 PM 55.4 °F - 41.0 °F 58% 30.02 in 10.0 mi NNW 11.5 mph - N/A   Clear
5:55 PM 55.4 °F - 42.8 °F 63% 30.03 in 10.0 mi NNW 6.9 mph - N/A   Clear
6:15 PM 53.6 °F - 41.0 °F 62% 30.03 in 10.0 mi NNW 6.9 mph - N/A   Clear
6:35 PM 51.8 °F - 41.0 °F 67% 30.04 in 10.0 mi NNW 6.9 mph - N/A   Clear
6:55 PM 51.8 °F - 41.0 °F 67% 30.05 in 10.0 mi NNW 6.9 mph - N/A   Clear
7:15 PM 50.0 °F - 41.0 °F 71% 30.05 in 10.0 mi NNW 5.8 mph - N/A   Clear
7:35 PM 48.2 °F - 41.0 °F 76% 30.06 in 10.0 mi NNW 3.5 mph - N/A   Clear
7:55 PM 48.2 °F - 42.8 °F 82% 30.06 in 10.0 mi NNW 4.6 mph - N/A   Clear
8:15 PM 48.2 °F - 41.0 °F 76% 30.06 in 10.0 mi NNW 6.9 mph - N/A   Clear
8:35 PM 46.4 °F 42.9 °F 41.0 °F 81% 30.06 in 10.0 mi NW 6.9 mph - N/A   Clear
8:55 PM 46.4 °F 42.4 °F 41.0 °F 81% 30.07 in 10.0 mi NNW 8.1 mph - N/A   Scattered Clouds
9:15 PM 46.4 °F 42.4 °F 41.0 °F 81% 30.08 in 10.0 mi NNW 8.1 mph - N/A   Scattered Clouds
9:55 PM 46.4 °F 42.4 °F 39.2 °F 76% 30.08 in 10.0 mi NNW 8.1 mph - N/A   Scattered Clouds
10:35 PM 46.4 °F 42.9 °F 39.2 °F 76% 30.08 in 10.0 mi NNW 6.9 mph - N/A   Clear
10:55 PM 44.6 °F 41.4 °F 39.2 °F 81% 30.08 in 10.0 mi NNW 5.8 mph - N/A   Clear
11:15 PM 44.6 °F 42.2 °F 39.2 °F 81% 30.08 in 10.0 mi NNW 4.6 mph - N/A   Clear
11:35 PM 44.6 °F 40.7 °F 39.2 °F 81% 30.08 in 10.0 mi NNW 6.9 mph - N/A   Clear
11:55 PM 44.6 °F 40.7 °F 39.2 °F 81% 30.08 in 10.0 mi NW 6.9 mph - N/A   Clear